TimeCST,TemperatureF,Dew PointF,Humidity,Sea Level PressureIn,VisibilityMPH,Wind Direction,Wind SpeedMPH,Gust SpeedMPH,PrecipitationIn,Events,Conditions,WindDirDegrees,DateUTC
12:15 AM,28.4,28.4,100,29.65,10.0,SW,6.9,-,N/A,,Overcast,220,2013-02-17 06:15:00
12:35 AM,30.2,28.4,93,29.64,10.0,SW,8.1,-,N/A,,Overcast,220,2013-02-17 06:35:00
12:55 AM,32.0,30.2,93,29.63,10.0,SW,6.9,-,N/A,,Overcast,220,2013-02-17 06:55:00
1:15 AM,32.0,30.2,93,29.62,10.0,SSW,6.9,-,N/A,,Overcast,210,2013-02-17 07:15:00
1:35 AM,32.0,30.2,93,29.61,10.0,SW,4.6,-,N/A,,Overcast,220,2013-02-17 07:35:00
1:55 AM,32.0,28.4,87,29.61,10.0,SW,3.5,-,N/A,,Overcast,230,2013-02-17 07:55:00
2:15 AM,32.0,28.4,87,29.60,10.0,SW,4.6,-,N/A,,Scattered Clouds,230,2013-02-17 08:15:00
2:35 AM,30.2,28.4,93,29.59,10.0,SSW,6.9,-,N/A,,Scattered Clouds,210,2013-02-17 08:35:00
2:55 AM,28.4,26.6,93,29.57,10.0,SSW,5.8,-,N/A,,Scattered Clouds,200,2013-02-17 08:55:00
3:15 AM,28.4,26.6,93,29.56,10.0,Calm,Calm,-,N/A,,Clear,0,2013-02-17 09:15:00
3:35 AM,30.2,26.6,86,29.55,10.0,SSW,6.9,-,N/A,,Clear,200,2013-02-17 09:35:00
3:55 AM,32.0,28.4,87,29.54,10.0,South,6.9,-,N/A,,Clear,180,2013-02-17 09:55:00
4:15 AM,32.0,28.4,87,29.54,10.0,SSW,3.5,-,N/A,,Clear,210,2013-02-17 10:15:00
4:35 AM,32.0,28.4,87,29.53,10.0,South,5.8,-,N/A,,Clear,190,2013-02-17 10:35:00
4:55 AM,32.0,28.4,87,29.52,10.0,South,9.2,-,N/A,,Clear,180,2013-02-17 10:55:00
5:15 AM,32.0,28.4,87,29.52,10.0,SSE,8.1,-,N/A,,Partly Cloudy,160,2013-02-17 11:15:00
5:35 AM,32.0,28.4,87,29.51,10.0,South,3.5,-,N/A,,Clear,190,2013-02-17 11:35:00
5:55 AM,32.0,28.4,87,29.50,10.0,SSW,8.1,-,N/A,,Clear,210,2013-02-17 11:55:00
6:15 AM,32.0,28.4,87,29.49,10.0,WSW,5.8,-,N/A,,Clear,240,2013-02-17 12:15:00
6:35 AM,32.0,28.4,87,29.49,10.0,WSW,10.4,-,N/A,,Clear,240,2013-02-17 12:35:00
6:55 AM,30.2,26.6,86,29.48,10.0,West,13.8,-,N/A,,Clear,260,2013-02-17 12:55:00
7:15 AM,30.2,26.6,86,29.48,10.0,West,16.1,-,N/A,,Clear,260,2013-02-17 13:15:00
7:35 AM,30.2,26.6,86,29.47,10.0,West,11.5,-,N/A,,Clear,280,2013-02-17 13:35:00
7:55 AM,30.2,26.6,86,29.47,10.0,West,17.3,-,N/A,,Clear,270,2013-02-17 13:55:00
8:15 AM,30.2,28.4,93,29.47,10.0,West,18.4,-,N/A,,Clear,270,2013-02-17 14:15:00
8:35 AM,32.0,28.4,87,29.47,10.0,West,16.1,-,N/A,,Clear,270,2013-02-17 14:35:00
8:55 AM,32.0,28.4,87,29.46,10.0,West,10.4,-,N/A,,Clear,270,2013-02-17 14:55:00
9:15 AM,32.0,28.4,87,29.47,10.0,West,10.4,-,N/A,,Clear,270,2013-02-17 15:15:00
9:35 AM,32.0,28.4,87,29.47,10.0,West,12.7,-,N/A,,Clear,270,2013-02-17 15:35:00
9:55 AM,32.0,28.4,87,29.46,10.0,West,13.8,-,N/A,,Clear,270,2013-02-17 15:55:00
10:15 AM,32.0,28.4,87,29.46,10.0,West,12.7,-,N/A,,Clear,260,2013-02-17 16:15:00
10:35 AM,32.0,28.4,87,29.45,10.0,West,12.7,-,N/A,,Clear,280,2013-02-17 16:35:00
10:55 AM,33.8,30.2,87,29.44,10.0,West,11.5,-,N/A,,Clear,280,2013-02-17 16:55:00
11:15 AM,33.8,30.2,87,29.44,10.0,West,13.8,-,N/A,,Clear,270,2013-02-17 17:15:00
11:35 AM,33.8,30.2,87,29.44,10.0,West,12.7,-,N/A,,Clear,270,2013-02-17 17:35:00
11:55 AM,35.6,30.2,81,29.44,10.0,West,12.7,-,N/A,,Clear,270,2013-02-17 17:55:00
12:15 PM,35.6,30.2,81,29.44,10.0,West,17.3,-,N/A,,Clear,280,2013-02-17 18:15:00
1:15 PM,35.6,32.0,87,29.43,10.0,West,18.4,-,N/A,,Clear,280,2013-02-17 19:15:00
1:35 PM,35.6,32.0,87,29.42,10.0,West,19.6,-,N/A,,Clear,280,2013-02-17 19:35:00
1:55 PM,35.6,32.0,87,29.42,10.0,West,19.6,27.6,N/A,,Scattered Clouds,280,2013-02-17 19:55:00
2:15 PM,35.6,32.0,87,29.42,10.0,West,21.9,26.5,N/A,,Scattered Clouds,280,2013-02-17 20:15:00
2:35 PM,33.8,32.0,93,29.43,10.0,West,21.9,29.9,N/A,,Partly Cloudy,270,2013-02-17 20:35:00
2:55 PM,33.8,32.0,93,29.43,10.0,West,18.4,26.5,N/A,,Mostly Cloudy,280,2013-02-17 20:55:00
3:15 PM,33.8,32.0,93,29.44,10.0,West,17.3,23.0,N/A,,Overcast,280,2013-02-17 21:15:00
3:35 PM,33.8,32.0,93,29.44,10.0,WNW,19.6,26.5,N/A,,Overcast,290,2013-02-17 21:35:00
3:55 PM,32.0,32.0,100,29.44,10.0,WNW,16.1,24.2,N/A,,Overcast,290,2013-02-17 21:55:00
4:15 PM,32.0,32.0,100,29.44,10.0,WNW,20.7,26.5,N/A,,Overcast,290,2013-02-17 22:15:00
4:35 PM,32.0,32.0,100,29.44,10.0,NW,20.7,26.5,N/A,,Overcast,310,2013-02-17 22:35:00
4:55 PM,32.0,32.0,100,29.45,10.0,NW,18.4,25.3,N/A,,Mostly Cloudy,310,2013-02-17 22:55:00
5:15 PM,30.2,30.2,100,29.46,10.0,NW,17.3,23.0,N/A,Rain,Freezing Rain,320,2013-02-17 23:15:00
5:35 PM,28.4,28.4,100,29.47,4.0,NW,13.8,-,0.01,Snow,Light Snow,310,2013-02-17 23:35:00
6:15 PM,30.2,30.2,100,29.49,3.0,NW,17.3,23.0,0.02,Snow,Light Snow,320,2013-02-18 00:15:00
6:35 PM,28.4,28.4,100,29.49,1.8,NNW,18.4,26.5,0.08,Snow,Light Snow,330,2013-02-18 00:35:00
6:55 PM,30.2,30.2,100,29.50,1.8,NNW,18.4,26.5,0.22,Snow,Light Snow,330,2013-02-18 00:55:00
7:15 PM,28.4,28.4,100,29.51,2.0,NNW,19.6,26.5,0.19,Snow,Light Snow,330,2013-02-18 01:15:00
7:35 PM,28.4,28.4,100,29.52,2.0,NNW,20.7,27.6,0.32,Snow,Light Snow,340,2013-02-18 01:35:00
7:55 PM,28.4,28.4,100,29.53,1.5,NNW,21.9,-,0.42,Snow,Light Snow,340,2013-02-18 01:55:00
8:15 PM,28.4,28.4,100,29.54,1.8,North,24.2,32.2,0.07,Snow,Light Snow,350,2013-02-18 02:15:00
8:35 PM,28.4,28.4,100,29.55,1.5,NNW,19.6,29.9,0.24,Snow,Light Snow,340,2013-02-18 02:35:00
8:55 PM,26.6,26.6,100,29.57,1.5,NNW,20.7,29.9,0.39,Snow,Light Snow,330,2013-02-18 02:55:00
9:15 PM,26.6,26.6,100,29.59,2.0,North,20.7,27.6,0.10,Snow,Light Snow,350,2013-02-18 03:15:00
9:35 PM,24.8,24.8,100,29.60,1.8,North,21.9,-,0.20,Snow,Light Snow,350,2013-02-18 03:35:00
9:55 PM,23.0,23.0,100,29.62,3.0,North,23.0,28.8,0.28,,Overcast,350,2013-02-18 03:55:00
10:15 PM,21.2,19.4,93,29.64,2.5,North,26.5,31.1,0.01,Snow,Light Snow,360,2013-02-18 04:15:00
10:35 PM,19.4,19.4,100,29.65,2.0,North,26.5,32.2,0.06,Snow,Light Snow,360,2013-02-18 04:35:00
10:55 PM,19.4,17.6,93,29.66,6.0,North,23.0,31.1,0.09,Snow,Light Snow,360,2013-02-18 04:55:00
11:15 PM,17.6,17.6,100,29.69,1.8,North,19.6,27.6,0.01,Snow,Light Snow,10,2013-02-18 05:15:00
11:35 PM,17.6,17.6,100,29.69,2.5,North,25.3,-,0.04,Snow,Light Snow,360,2013-02-18 05:35:00
11:55 PM,17.6,17.6,100,29.71,2.5,North,23.0,-,0.06,Snow,Light Snow,360,2013-02-18 05:55:00